Weather in Eforie Nord

Romania     44°03′58″N   28°37′45″E
temp.,
°C
wind,
m/s
gust,
m/s
humid.,
%
clouds,
%
prec.,
mm/h
press.,
hPa
HPBL,
m
5 march, fri
fri523:00+8ssw68820 0.0 1015121
02:00+8sw56720 0.0 101470
05:00+9wsw56670 0.0 101379
08:00+8wsw58700 0.0 1013158
11:00+11w45600 0.0 101486
14:00+12w35547 0.0 1013215
17:00+13w455313 0.0 101367
20:00+11sw565719 0.0 101442
6 march, sat
sat623:00+11w67580 0.0 101578
02:00+10w696129 0.0 1016112
05:00+8nnw6973100 0.0 1017172
08:00+6n101277100 0.0 1021653
11:00+5n101175100 0.0 1023891
14:00+4nne91067100 0.3 10261080
17:00+5nne895292 0.0 10271342
20:00+5nne784889 0.0 10291332
7 march, sun
sun723:00+5nne665055 0.0 10311123
02:00+4n444628 0.0 1031833
05:00+3n33450 0.0 1030644
08:00+3nnw22430 0.0 1031402
11:00+4sse11390 0.0 1029427
14:00+5sse55440 0.0 1027700
17:00+6s99540 0.0 1024663
20:00+5ssw810600 0.0 1024532
8 march, mon
mon823:00+5sw811670 0.0 1022520
02:00+4sw811701 0.0 1021463
05:00+4sw697020 0.0 1018310
08:00+4sw676711 0.0 1018268
11:00+7sw45560 0.0 1017539
14:00+8ssw456229 0.0 1015338
17:00+9ssw24622 0.0 1014134
20:00+7sw33721 0.0 101463
9 march, tue
tue923:00+7wsw226443 0.0 101422
02:00+6wnw566021 0.0 1014143
05:00+6nw7105786 0.0 1015317
08:00+4n11147981 0.0 1018647
11:00+4nne10117397 0.0 1020668
14:00+5ne795898 0.0 1021879
17:00+4ene6759100 0.0 1021831
20:00+5ene6758100 0.0 1023866